{"data":{"norad_id":56781,"intl_designator":"2023-078Q","name":"STARLINK-5989","alt_names":[],"object_type":"PAYLOAD","status":"ACTIVE","operator":null,"country":"US","launch_date":"2023-05-31","launch_site_code":"AFWTR","launch_vehicle":null,"mission":null,"orbit_class":"UNKNOWN","rcs_meters":null,"size_class":null,"mass_kg":null,"dimensions":null,"purposes":["comms"],"wikipedia_slug":null,"has_3d_model":false,"image_url":null,"decayed_at":null,"tle_current":{"epoch":"2026-05-25T02:21:39.964608Z","epoch_age_seconds":56805,"freshness":"FRESH","line1":"1 56781U 23078Q   26145.09837922  .00000564  00000+0  55068-4 0  9997","line2":"2 56781  69.9985 151.8772 0003598 267.9464  92.1283 14.98331229164120","mean_motion":14.98331229,"eccentricity":0.0003598,"inclination_deg":69.9985,"raan_deg":151.8772,"arg_perigee_deg":267.9464,"mean_anomaly_deg":92.1283,"bstar":5.5068e-5,"rev_number":16412,"period_min":96.106920294324,"perigee_km":569.55141233118,"apogee_km":574.55276840061,"semimajor_km":6950.1890903659,"source":"CELESTRAK","updated_at":"2026-05-25T13:38:18.153181Z"}}}